Regional Weather Roundup
Issued by NWS

Home | Current Version | Previous Version | Text Only | Print | Product List | Glossary On
Versions: 1 2 3 4 5 6 7 8 9 10 11 12 13 14 15 16 17 18 19 20 21 22 23 24 25 26 27 28 29 30 31 32 33 34 35 36 37 38 39 40 41 42 43 44 45 46 47 48 49 50
000
ASMX46 KSGX 250111
RWRMX

MEXICAN WEATHER ROUNDUP
NATIONAL WEATHER SERVICE SAN DIEGO CA
600 PM PDT FRI APR 24 2015

BAJA CALIFORNIA

CITY           SKY/WX    TMP DP  RH WIND       PRES   REMARKS
ENSENADA NW      N/A     62  32  32 W3        29.99F
LA PAZ         CLEAR     75  57  53 NW9       29.93R
LORETO         SUNNY     73  59  60 CALM      29.89F
MEXICALI       SUNNY     79  43  27 NW13      29.83S
S.J. DEL CABO  CLEAR     75  59  57 SE15      29.91S
TIJUANA        CLOUDY    61  48  63 SW7       30.01F

NORTHWESTERN MEXICO

CITY           SKY/WX    TMP DP  RH WIND       PRES   REMARKS
CHIHUAHUA      CLEAR     79  23  12 W17       29.91R
CULIACAN       CLEAR     82  66  57 W12       29.87R
GUAYMAS        SUNNY     77  52  41 CALM      29.85F
HERMOSILLO     SUNNY     82  43  24 S14       29.92S
JUAREZ         PTCLDY    70  37  30 W17       29.86S
LOS MOCHIS     CLEAR     77  48  36 W17       29.89R
OBREGON        CLEAR     79  43  27 W12       29.86R

NORTHEASTERN MEXICO

CITY           SKY/WX    TMP DP  RH WIND       PRES   REMARKS
MATAMOROS      PTCLDY    81  77  89 SE12      29.73
MONTERREY      CLOUDY    82  73  74 SE8       29.74R
NUEVO LAREDO   PTCLDY    88  75  66 S6        29.66R HX  97
REYNOSA        MOCLDY    79  73  83 E12       29.67
SALTILLO       CLOUDY    75  59  57 CALM      29.95R
TORREON        MOCLDY    91  32  12 SW7       29.87
VICTORIA       MOCLDY    86  73  66 S9        29.68S HAZE

WESTERN MEXICO

CITY           SKY/WX    TMP DP  RH WIND       PRES   REMARKS
AGUASCALIENTES MOCLDY    73  36  25 SW8       30.14R
COLIMA         MOCLDY    79  66  65 W6        29.95R
DURANGO        MOCLDY    73  32  21 SW17      30.13R
GUADALAJARA    MOCLDY    79  45  29 W12       30.08R
MANZANILLO     MOCLDY    79  72  78 W6        29.79R
MAZATLAN         N/A    N/A N/A N/A MISG        N/A
PTO. VALLARTA  CLOUDY    79  72  78 W3        29.86R
TEPIC          MOCLDY    79  61  53 S3        30.00R
ZACATECAS      PTCLDY    72  39  30 SW17      30.17S

CENTRAL MEXICO

CITY           SKY/WX    TMP DP  RH WIND       PRES   REMARKS
MEXICO CITY    CLEAR     75  37  25 S14       30.21R
MORELIA        PTCLDY    77  46  33 SW6       30.13R
POZA RICA      CLEAR     86  77  74 E9        29.74R HX  97
PUEBLA         CLEAR     73  39  29 S14       30.20S
QUERETARO      PTCLDY    79  43  27 W17       30.15R
S. LUIS POTOSI PTCLDY    81  43  26 W14       30.07R
TAMPICO        PTCLDY    82  77  83 SE17      29.71R HAZE
TOLUCA         PTCLDY    68  39  34 SW12      30.31R
VERACRUZ       CLEAR     84  77  79 E12       29.72S

SOUTHERN MEXICO

CITY           SKY/WX    TMP DP  RH WIND       PRES   REMARKS
ACAPULCO       CLEAR     82  79  89 W9        29.79R
B. DE HUATULCO PTCLDY    82  73  74 CALM      29.82R
MINATITLAN     CLEAR     86  68  54 CALM      29.67S
OAXACA         MOCLDY    81  54  39 S14       30.08R
TAPACHULA      CLEAR     86  79  79 CALM      29.81R HX  99
TUX. GUTIERREZ PTCLDY    90  64  43 N3        29.79R
VILLAHERMOSA   PTCLDY    90  72  55 E5        29.74S HX  96
ZIHUATANEJO    CLEAR     82  77  83 W6        29.81R

YUCATAN PENINSULA

CITY           SKY/WX    TMP DP  RH WIND       PRES   REMARKS
CAMPECHE       PTCLDY    86  79  79 N10       29.76S HX  99
CANCUN         PTCLDY    82  77  83 SE9       29.93R
CHETUMAL       PTCLDY    82  73  74 SE14      29.88R
C. DEL CARMEN  PTCLDY    86  79  79 NE13      29.74S HX  99
COZUMEL        PTCLDY    77  75  94 SE5       29.92S
MERIDA         PTCLDY    91  70  49 N9        29.79R HX  97

$$



USA.gov is the U.S. government's official web portal to all federal, state and local government web resources and services.